CW9825 Weather Reports


time (UTC)temp
C
wind
direction
speed
KPH
gust
KPH
rain 1hr
cm
rain 24hr
cm
rain mn
cm
humidity
%
barometer
mb
20210620102040 17 292 3.2 11.3 0.15 0.25 0.25 91 1005.2
20210620101607 17 228 3.2 6.4 0.15 0.25 0.25 91 1005.0
20210620101040 17 220 3.2 6.4 0.13 0.23 0.23 91 1004.8
20210620100539 17 188 0.0 4.8 0.10 0.20 0.20 91 1004.5
20210620100053 16 187 0.0 0.0 0.05 0.15 0.15 90 1004.4
20210620095538 17 187 0.0 0.0 0.03 0.13 0.13 88 1004.3
20210620095051 17 187 0.0 0.0 0.03 0.13 0.13 87 1004.2
20210620094709 17 187 0.0 1.6 0.00 0.10 0.10 87 1004.1
20210620094036 17 187 0.0 3.2 0.00 0.10 0.10 86 1004.1
20210620093540 17 187 0.0 6.4 0.00 0.10 0.10 86 1003.9
20210620093141 17 187 1.6 6.4 0.00 0.10 0.10 87 1003.5
20210620092543 17 187 3.2 9.7 0.00 0.10 0.10 84 1003.2
20210620092053 17 187 3.2 9.7 0.00 0.10 0.10 84 1003.1
20210620091635 17 173 4.8 12.9 0.03 0.10 0.10 84 1003.2
20210620091034 17 183 6.4 14.5 0.03 0.10 0.10 84 1003.0
20210620090540 17 148 8.0 14.5 0.05 0.10 0.10 82 1002.8
20210620090152 17 148 3.2 11.3 0.05 0.10 0.10 81 1002.8
20210620085548 17 149 4.8 11.3 0.05 0.10 0.10 82 1002.8
20210620085032 17 150 6.4 11.3 0.05 0.10 0.10 81 1003.0
20210620084604 17 191 3.2 9.7 0.05 0.10 0.10 80 1003.1
20210620084043 17 169 3.2 12.9 0.05 0.10 0.10 82 1003.3
20210620083529 17 186 4.8 11.3 0.05 0.10 0.10 84 1003.6
20210620083123 17 190 4.8 11.3 0.05 0.10 0.10 85 1003.8
20210620082528 17 182 6.4 9.7 0.05 0.10 0.10 86 1003.7
20210620082047 17 184 3.2 9.7 0.05 0.10 0.10 86 1003.8
20210620081545 17 184 3.2 8.0 0.03 0.08 0.08 84 1003.9
20210620081024 17 184 3.2 14.5 0.03 0.08 0.08 83 1004.2
20210620080535 18 184 3.2 14.5 0.03 0.05 0.05 81 1004.5
20210620080115 18 187 4.8 9.7 0.03 0.05 0.05 79 1004.6
20210620075523 18 176 6.4 11.3 0.05 0.05 0.05 80 1004.7
20210620075030 17 172 4.8 8.0 0.05 0.05 0.05 82 1004.8
20210620074631 17 183 3.2 6.4 0.05 0.05 0.05 83 1004.8
20210620074025 17 183 3.2 4.8 0.05 0.05 0.05 82 1004.9
20210620073521 17 183 0.0 6.4 0.05 0.05 0.05 82 1004.9
20210620073029 17 183 1.6 6.4 0.05 0.05 0.05 82 1005.0
20210620072522 17 183 0.0 6.4 0.05 0.05 0.05 82 1005.0
20210620072021 17 183 0.0 6.4 0.05 0.05 0.05 83 1005.1
20210620071542 18 183 0.0 6.4 0.05 0.05 0.05 79 1005.2
20210620071019 18 183 3.2 6.4 0.05 0.05 0.05 80 1005.2
20210620070517 18 185 0.0 9.7 0.03 0.03 0.03 75 1005.1
20210620070021 18 185 3.2 11.3 0.00 0.00 0.00 74 1005.0
20210620065517 19 182 4.8 11.3 0.00 0.00 0.00 72 1004.9
20210620065019 19 173 6.4 14.5 0.00 0.00 0.00 70 1004.7
20210620064518 20 175 6.4 14.5 0.00 0.00 0.00 65 1004.7
20210620064019 20 146 8.0 14.5 0.00 0.00 0.00 65 1004.5
20210620063513 20 147 6.4 11.3 0.00 0.00 0.00 65 1004.7
20210620063015 20 147 4.8 11.3 0.00 0.00 0.00 64 1004.7
20210620062513 21 147 4.8 11.3 0.00 0.00 0.00 60 1004.8
20210620062008 21 130 6.4 11.3 0.00 0.00 0.00 57 1004.9
20210620061513 21 171 6.4 9.7 0.00 0.00 0.00 55 1005.0
20210620061012 21 171 1.6 9.7 0.00 0.00 0.00 55 1005.1
20210620060521 21 171 4.8 9.7 0.00 0.00 0.00 56 1005.3
20210620060010 21 160 0.0 4.8 0.00 0.00 0.00 57 1005.4
20210620055505 21 161 0.0 3.2 0.00 0.00 0.00 57 1005.5
20210620055007 21 161 0.0 4.8 0.00 0.00 0.00 56 1005.5
20210620054506 21 161 0.0 4.8 0.00 0.00 0.00 56 1005.6
20210620054009 21 161 0.0 1.6 0.00 0.00 0.00 56 1005.6
20210620053510 21 160 0.0 1.6 0.00 0.00 0.00 58 1005.5
20210620053017 21 161 0.0 4.8 0.00 0.00 0.00 56 1005.6
20210620052511 21 161 1.6 8.0 0.00 0.00 0.00 56 1005.7
20210620052003 21 161 1.6 8.0 0.00 0.00 0.00 56 1005.6
20210620051513 21 161 1.6 8.0 0.00 0.00 0.00 55 1005.6
20210620051002 21 130 1.6 6.4 0.00 0.00 0.00 54 1005.7
20210620050503 21 128 0.0 4.8 0.00 0.00 0.00 55 1005.8
20210620050141 21 90 1.6 4.8 0.00 0.00 0.00 54 1005.8
20210620045600 21 78 1.6 4.8 0.00 0.00 0.00 54 1005.6
20210620045109 21 78 0.0 4.8 0.00 0.00 0.00 56 1005.8
20210620044649 21 78 1.6 4.8 0.00 0.00 0.00 55 1005.8
20210620044117 21 78 1.6 4.8 0.00 0.00 0.00 52 1005.6
20210620043606 22 64 1.6 3.2 0.00 0.00 0.00 51 1005.7
20210620043501 22 64 1.6 4.8 0.00 0.00 0.00 50 1005.7
20210620043205 22 64 1.6 6.4 0.00 0.00 0.00 50 1005.7
20210620042558 22 64 3.2 6.4 0.00 0.00 0.00 48 1005.7
20210620042106 22 68 3.2 6.4 0.00 0.00 0.00 49 1005.6
20210620041846 22 74 1.6 6.4 0.00 0.00 0.00 52 1005.7
20210620041055 21 38 1.6 4.8 0.00 0.00 0.00 55 1005.8
20210620040643 21 38 1.6 4.8 0.00 0.00 0.00 55 1006.0
20210620040208 21 38 0.0 3.2 0.00 0.00 0.00 60 1006.2
20210620035555 21 38 0.0 3.2 0.00 0.00 0.00 59 1006.5
20210620035055 21 38 0.0 6.4 0.00 0.00 0.00 55 1006.4
20210620034636 22 38 1.6 8.0 0.00 0.00 0.00 55 1006.5
20210620034117 22 68 3.2 8.0 0.00 0.00 0.00 57 1006.5
20210620033554 22 207 0.0 8.0 0.00 0.00 0.00 52 1006.6
20210620033153 22 207 1.6 8.0 0.00 0.00 0.00 50 1006.5
20210620032554 22 248 1.6 6.4 0.00 0.00 0.00 53 1006.5
20210620032108 22 248 0.0 3.2 0.00 0.00 0.00 50 1006.3
20210620031645 22 248 0.0 3.2 0.00 0.00 0.00 50 1006.3
20210620031112 22 248 0.0 1.6 0.00 0.00 0.00 50 1006.2
20210620030604 22 248 0.0 0.0 0.00 0.00 0.00 50 1006.1
20210620030147 22 248 0.0 0.0 0.00 0.00 0.00 52 1006.2
20210620025553 22 248 0.0 1.6 0.00 0.00 0.00 52 1006.2
20210620025108 22 248 0.0 1.6 0.00 0.00 0.00 50 1006.2
20210620024633 22 248 0.0 1.6 0.00 0.00 0.00 50 1006.2
20210620024052 22 248 0.0 0.0 0.00 0.00 0.00 50 1006.2
20210620023610 22 248 0.0 1.6 0.00 0.00 0.00 49 1006.1
20210620023234 22 248 0.0 1.6 0.00 0.00 0.00 49 1006.2
20210620022553 22 248 0.0 1.6 0.00 0.00 0.00 49 1006.1
20210620022052 22 248 0.0 1.6 0.00 0.00 0.00 48 1006.1
20210620021638 23 248 0.0 1.6 0.00 0.00 0.00 48 1006.1
20210620021103 23 248 0.0 1.6 0.00 0.00 0.00 46 1006.1
20210620020600 23 248 0.0 3.2 0.00 0.00 0.00 44 1006.1
20210620020123 23 248 0.0 4.8 0.00 0.00 0.00 44 1006.0
20210620015551 24 248 0.0 4.8 0.00 0.00 0.00 43 1006.0
20210620015051 24 248 0.0 6.4 0.00 0.00 0.00 42 1006.1
20210620014653 25 248 0.0 6.4 0.00 0.00 0.00 43 1006.0
20210620014050 25 248 1.6 11.3 0.00 0.00 0.00 40 1006.0
20210620013549 25 248 4.8 11.3 0.00 0.00 0.00 39 1006.1
20210620013151 25 271 1.6 11.3 0.00 0.00 0.00 41 1006.1
20210620012550 25 205 1.6 11.3 0.00 0.00 0.00 41 1006.2
20210620012100 25 239 0.0 8.0 0.00 0.00 0.00 41 1006.1
20210620011800 25 251 0.0 9.7 0.00 0.00 0.00 40 1006.1
20210620011100 26 259 0.0 11.3 0.00 0.00 0.00 40 1006.2
20210620010611 26 259 4.8 11.3 0.00 0.00 0.00 39 1006.2
20210620010139 26 255 4.8 11.3 0.00 0.00 0.00 39 1006.2
20210620005603 26 259 3.2 12.9 0.00 0.00 0.00 38 1006.2
20210620005105 26 271 4.8 12.9 0.00 0.00 0.00 38 1006.3
20210620004620 26 274 3.2 12.9 0.00 0.00 0.00 38 1006.4
20210620004057 26 275 1.6 12.9 0.00 0.00 0.00 39 1006.3
20210620003546 26 278 3.2 12.9 0.00 0.00 0.00 37 1006.3
20210620003117 26 280 1.6 14.5 0.00 0.00 0.00 39 1006.3
20210620002545 26 281 6.4 14.5 0.00 0.00 0.00 37 1006.5
20210620002045 26 263 6.4 14.5 0.00 0.00 0.00 38 1006.5
20210620001551 27 295 4.8 14.5 0.00 0.00 0.00 38 1006.4
20210620001044 27 279 6.4 16.1 0.00 0.00 0.00 38 1006.4
20210620000545 27 249 4.8 16.1 0.00 0.00 0.00 40 1006.6
20210620000157 27 258 4.8 16.1 0.00 0.00 0.00 38 1006.7
20210619235543 27 264 8.0 19.3 0.00 0.00 0.00 38 1006.8
20210619235041 27 256 6.4 19.3 0.00 0.00 0.00 38 1006.7
20210619234632 27 255 1.6 12.9 0.00 0.00 0.00 40 1006.7
20210619234112 27 250 1.6 19.3 0.00 0.00 0.00 39 1006.7
20210619233540 26 229 3.2 19.3 0.00 0.00 0.00 40 1006.7
20210619233107 26 258 4.8 19.3 0.00 0.00 0.00 39 1006.8
20210619232545 26 252 8.0 17.7 0.00 0.00 0.00 38 1006.8
20210619232102 27 272 8.0 17.7 0.00 0.00 0.00 38 1006.8
20210619231703 27 276 0.0 19.3 0.00 0.00 0.00 38 1006.8
20210619231038 26 271 8.0 19.3 0.00 0.00 0.00 39 1006.9
20210619230542 26 304 4.8 16.1 0.00 0.00 0.00 41 1006.9
20210619230106 26 256 1.6 14.5 0.00 0.00 0.00 45 1007.0
20210619225103 26 235 8.0 19.3 0.00 0.00 0.00 41 1007.1
20210619224704 26 183 3.2 11.3 0.00 0.00 0.00 44 1007.1
20210619224034 25 182 3.2 11.3 0.00 0.00 0.00 43 1007.1
20210619223533 25 198 1.6 6.4 0.00 0.00 0.00 46 1007.2
20210619223123 26 284 0.0 8.0 0.00 0.00 0.00 40 1007.2
20210619222533 26 308 1.6 8.0 0.00 0.00 0.00 43 1007.2
20210619222039 26 306 1.6 16.1 0.00 0.00 0.00 40 1007.3
20210619221532 26 271 6.4 19.3 0.00 0.00 0.00 41 1007.4
20210619221037 27 269 3.2 17.7 0.00 0.00 0.00 41 1007.4
20210619220556 26 305 4.8 17.7 0.00 0.00 0.00 40 1007.5
20210619220036 26 304 8.0 14.5 0.00 0.00 0.00 39 1007.5
20210619215029 26 254 4.8 11.3 0.00 0.00 0.00 42 1007.6
20210619214540 26 244 3.2 14.5 0.00 0.00 0.00 43 1007.6
20210619214027 26 254 6.4 16.1 0.00 0.00 0.00 41 1007.7
20210619213531 26 285 6.4 16.1 0.00 0.00 0.00 42 1007.8
20210619213041 26 228 3.2 14.5 0.00 0.00 0.00 44 1007.8
20210619212525 26 263 3.2 19.3 0.00 0.00 0.00 43 1008.0
20210619212034 26 236 8.0 19.3 0.00 0.00 0.00 40 1008.1
20210619211603 26 153 3.2 8.0 0.00 0.00 0.00 42 1008.0
20210619211023 25 281 0.0 14.5 0.00 0.00 0.00 42 1008.1
20210619210528 25 293 4.8 14.5 0.00 0.00 0.00 47 1008.1
20210619210047 26 215 4.8 12.9 0.00 0.00 0.00 42 1008.2
20210619205522 25 219 1.6 12.9 0.00 0.00 0.00 46 1008.2
20210619205021 26 243 6.4 12.9 0.00 0.00 0.00 42 1008.2
20210619204533 25 290 4.8 17.7 0.00 0.00 0.00 42 1008.3
20210619204027 26 269 9.7 17.7 0.00 0.00 0.00 43 1008.5
20210619203524 25 264 4.8 11.3 0.00 0.00 0.00 42 1008.4
20210619203058 25 120 3.2 11.3 0.00 0.00 0.00 45 1008.5
20210619202517 26 236 4.8 12.9 0.00 0.00 0.00 42 1008.7
20210619202016 25 243 4.8 12.9 0.00 0.00 0.00 45 1008.7
20210619201539 25 309 1.6 11.3 0.00 0.00 0.00 44 1008.6
20210619201024 24 268 0.0 16.1 0.00 0.00 0.00 43 1008.7
20210619200518 25 275 6.4 16.1 0.00 0.00 0.00 44 1008.9
20210619200034 25 297 4.8 16.1 0.00 0.00 0.00 45 1009.0
20210619195518 25 246 8.0 16.1 0.00 0.00 0.00 44 1009.0
20210619195016 25 232 6.4 14.5 0.00 0.00 0.00 46 1009.1
20210619194515 25 266 1.6 11.3 0.00 0.00 0.00 48 1009.2
20210619194011 23 184 4.8 11.3 0.00 0.00 0.00 48 1009.3
20210619193509 24 215 3.2 11.3 0.00 0.00 0.00 48 1009.3
20210619193031 24 175 4.8 11.3 0.00 0.00 0.00 46 1009.4
20210619192508 24 177 3.2 8.0 0.00 0.00 0.00 48 1009.5
20210619192007 23 292 4.8 8.0 0.00 0.00 0.00 45 1009.6
20210619191509 22 333 1.6 14.5 0.00 0.00 0.00 47 1009.7
20210619191009 23 312 4.8 14.5 0.00 0.00 0.00 45 1009.8
20210619190504 23 269 3.2 12.9 0.00 0.00 0.00 48 1010.0
20210619190006 23 228 3.2 12.9 0.00 0.00 0.00 44 1009.9
20210619185503 23 249 0.0 22.5 0.00 0.00 0.00 49 1010.0
20210619185002 23 257 8.0 22.5 0.00 0.00 0.00 49 1010.0
20210619184510 23 192 3.2 14.5 0.00 0.00 0.00 46 1010.2
20210619183604 23 254 3.2 14.5 0.00 0.00 0.00 48 1010.6
20210619183138 22 12 1.6 9.7 0.00 0.00 0.00 48 1010.6
20210619182607 23 24 3.2 9.7 0.00 0.00 0.00 47 1010.8
20210619182101 22 271 3.2 9.7 0.00 0.00 0.00 49 1011.0
20210619181817 22 23 4.8 11.3 0.00 0.00 0.00 47 1011.0
20210619181057 22 254 3.2 16.1 0.00 0.00 0.00 48 1011.1
20210619180555 22 255 6.4 16.1 0.00 0.00 0.00 48 1011.2
20210619180157 22 294 6.4 14.5 0.00 0.00 0.00 48 1011.3
20210619175606 22 246 6.4 14.5 0.00 0.00 0.00 50 1011.3
20210619175106 22 173 3.2 9.7 0.00 0.00 0.00 52 1011.4
20210619174718 22 340 1.6 11.3 0.00 0.00 0.00 49 1011.5
20210619174108 22 323 4.8 11.3 0.00 0.00 0.00 49 1011.4
20210619173609 22 318 3.2 8.0 0.00 0.00 0.00 51 1011.4
20210619173103 22 208 1.6 12.9 0.00 0.00 0.00 51 1011.5
20210619172549 21 247 1.6 12.9 0.00 0.00 0.00 51 1011.6
20210619172046 21 284 4.8 12.9 0.00 0.00 0.00 51 1011.7
20210619171632 21 247 4.8 16.1 0.00 0.00 0.00 50 1011.6
20210619171045 21 246 6.4 16.1 0.00 0.00 0.00 49 1011.7
20210619170544 21 261 1.6 17.7 0.00 0.00 0.00 52 1011.6
20210619170111 21 243 6.4 17.7 0.00 0.00 0.00 52 1011.7
20210619165542 21 301 3.2 8.0 0.00 0.00 0.00 53 1011.7
20210619165101 21 267 3.2 8.0 0.00 0.00 0.00 53 1011.6
20210619164610 21 229 1.6 6.4 0.00 0.00 0.00 55 1011.8
20210619164052 20 246 1.6 6.4 0.00 0.00 0.00 53 1011.8
20210619163537 20 227 1.6 9.7 0.00 0.00 0.00 53 1011.9
20210619163045 20 5 1.6 9.7 0.00 0.00 0.00 51 1011.9
20210619162537 21 360 4.8 9.7 0.00 0.00 0.00 51 1012.0
20210619162042 21 355 4.8 16.1 0.00 0.00 0.00 53 1012.1
20210619161604 21 272 3.2 16.1 0.00 0.00 0.00 55 1012.1
20210619161052 20 296 3.2 11.3 0.00 0.00 0.00 53 1012.1
20210619160529 20 269 4.8 11.3 0.00 0.00 0.00 54 1012.2
20210619160055 20 268 3.2 14.5 0.00 0.00 0.00 54 1012.3
20210619155531 20 274 4.8 14.5 0.00 0.00 0.00 54 1012.3
20210619155034 19 298 1.6 11.3 0.00 0.00 0.00 55 1012.3
20210619154527 19 268 1.6 9.7 0.00 0.00 0.00 54 1012.5
20210619154027 20 188 4.8 11.3 0.00 0.00 0.00 56 1012.6
20210619153521 18 293 1.6 12.9 0.00 0.00 0.00 56 1012.6
20210619153020 19 256 3.2 12.9 0.00 0.00 0.00 55 1012.7
20210619152529 18 65 1.6 6.4 0.00 0.00 0.00 57 1012.7
20210619152023 18 65 1.6 6.4 0.00 0.00 0.00 58 1012.8
20210619151523 18 85 0.0 11.3 0.00 0.00 0.00 58 1012.8
20210619151014 18 89 4.8 11.3 0.00 0.00 0.00 57 1012.8
20210619150514 18 147 3.2 9.7 0.00 0.00 0.00 59 1012.8
20210619150035 17 210 1.6 8.0 0.00 0.00 0.00 60 1012.9
20210619145511 17 210 3.2 8.0 0.00 0.00 0.00 58 1013.0
20210619145010 17 198 1.6 6.4 0.00 0.00 0.00 61 1013.0
20210619144517 17 196 1.6 6.4 0.00 0.00 0.00 60 1013.1
20210619144009 17 165 1.6 6.4 0.00 0.00 0.00 58 1013.2
20210619143510 17 87 0.0 6.4 0.00 0.00 0.00 60 1013.2
20210619143017 17 135 3.2 6.4 0.00 0.00 0.00 59 1013.1
20210619142507 17 132 1.6 9.7 0.00 0.00 0.00 60 1013.1
20210619142007 17 132 3.2 9.7 0.00 0.00 0.00 58 1013.2
20210619141512 17 59 3.2 6.4 0.00 0.00 0.00 60 1013.2
20210619141006 17 130 4.8 6.4 0.00 0.00 0.00 60 1013.2
20210619140508 16 111 1.6 4.8 0.00 0.00 0.00 64 1013.3
20210619140031 16 111 0.0 9.7 0.00 0.00 0.00 63 1013.4
20210619135503 16 111 3.2 9.7 0.00 0.00 0.00 63 1013.4
20210619135006 16 123 0.0 6.4 0.00 0.00 0.00 66 1013.3
20210619134511 16 123 1.6 6.4 0.00 0.00 0.00 66 1013.3
20210619134005 16 336 1.6 6.4 0.00 0.00 0.00 67 1013.3
20210619133559 16 333 0.0 6.4 0.00 0.00 0.00 68 1013.1
20210619133222 15 333 3.2 6.4 0.00 0.00 0.00 70 1013.1
20210619132613 15 333 1.6 6.4 0.00 0.00 0.00 69 1013.2
20210619132108 15 333 3.2 6.4 0.00 0.00 0.00 67 1013.2
20210619131647 15 329 0.0 0.0 0.00 0.00 0.00 75 1013.2
20210619131059 15 329 0.0 0.0 0.00 0.00 0.00 75 1013.1
20210619130557 14 329 0.0 0.0 0.00 0.00 0.00 76 1013.0
20210619130143 14 329 0.0 0.0 0.00 0.00 0.00 77 1013.1
20210619125633 13 329 0.0 0.0 0.00 0.00 0.00 77 1013.0
20210619125057 13 329 0.0 0.0 0.00 0.00 0.00 79 1013.0
20210619124713 13 329 0.0 0.0 0.00 0.00 0.00 79 1013.0
20210619124057 13 329 0.0 0.0 0.00 0.00 0.00 81 1013.0
20210619123559 13 329 0.0 4.8 0.00 0.00 0.00 82 1013.0
20210619123137 13 329 0.0 4.8 0.00 0.00 0.00 82 1013.0
20210619122556 12 329 0.0 6.4 0.00 0.00 0.00 83 1013.0
20210619122056 12 329 3.2 6.4 0.00 0.00 0.00 83 1013.0
20210619121647 12 329 0.0 6.4 0.00 0.00 0.00 83 1012.8
20210619121109 12 329 1.6 6.4 0.00 0.00 0.00 83 1012.7
20210619120636 12 329 1.6 6.4 0.00 0.00 0.00 82 1012.6
20210619120124 12 329 1.6 6.4 0.00 0.00 0.00 83 1012.6
20210619115602 12 329 3.2 6.4 0.00 0.00 0.00 84 1012.8
20210619115055 12 329 0.0 4.8 0.00 0.00 0.00 84 1012.8
20210619114613 12 329 1.6 4.8 0.00 0.00 0.00 84 1012.9
20210619114052 12 329 0.0 3.2 0.00 0.00 0.00 85 1012.9
20210619113550 11 329 0.0 0.0 0.00 0.00 0.00 84 1012.9
20210619113103 11 329 0.0 0.0 0.00 0.00 0.00 84 1013.0
20210619112549 11 329 0.0 0.0 0.00 0.00 0.00 85 1013.0
20210619112049 11 329 0.0 0.0 0.00 0.00 0.00 85 1013.0
20210619111604 11 329 0.0 0.0 0.00 0.00 0.00 86 1012.9
20210619111048 11 329 0.0 0.0 0.00 0.00 0.00 86 1012.8
20210619110547 11 329 0.0 0.0 0.00 0.00 0.00 86 1012.7
20210619110159 11 329 0.0 0.0 0.00 0.00 0.00 86 1012.7
20210619105545 11 329 0.0 0.0 0.00 0.00 0.00 86 1012.6
20210619105044 11 329 0.0 0.0 0.00 0.00 0.00 85 1012.7
20210619104614 11 329 0.0 0.0 0.00 0.00 0.00 85 1012.5
20210619104051 11 329 0.0 0.0 0.00 0.00 0.00 84 1012.6
20210619103547 11 328 0.0 6.4 0.00 0.00 0.00 84 1012.7
20210619103053 11 329 0.0 6.4 0.00 0.00 0.00 84 1012.9
20210619102541 11 328 3.2 6.4 0.00 0.00 0.00 84 1012.9